Voltar ao catálogo

COSMOS 2169

AtivoComunicaçõesPO
NORAD 21783·PAYLOAD·🇷🇺 Russia

Lançado Nov 12, 1991 de Plesetsk Cosmodrome

Loading…

Próximas Passagens (próximas 24 horas)

TLE

AtualizadoSource: Space-Track

Época: Sep 14, 2026, 09:46 UTC

1 21783U 91077E   26257.40741933  .00000042  00000-0  16432-3 0  9993
2 21783  82.6062 151.3433 0018394 124.2557 236.0282 12.66317419610086

Acompanhe COSMOS 2169 em tempo real com AllMySat

Download on the App Store